{"data":{"norad_id":63452,"intl_designator":"2025-069V","name":"STARLINK-33763","alt_names":[],"object_type":"PAYLOAD","status":"ACTIVE","operator":null,"country":"US","launch_date":"2025-04-04","launch_site_code":"AFWTR","launch_vehicle":null,"mission":null,"orbit_class":"UNKNOWN","rcs_meters":null,"size_class":null,"mass_kg":null,"dimensions":null,"purposes":["comms"],"wikipedia_slug":null,"has_3d_model":false,"image_url":null,"decayed_at":null,"tle_current":{"epoch":"2026-05-25T04:02:17.581056Z","epoch_age_seconds":63711,"freshness":"FRESH","line1":"1 63452U 25069V   26145.16825904  .00062542  00000+0  14322-2 0  9997","line2":"2 63452  53.1579 144.4069 0001397 118.5711 241.5435 15.42217267 65152","mean_motion":15.42217267,"eccentricity":0.0001397,"inclination_deg":53.1579,"raan_deg":144.4069,"arg_perigee_deg":118.5711,"mean_anomaly_deg":241.5435,"bstar":0.0014322,"rev_number":6515,"period_min":93.372057933261,"perigee_km":438.61444116418,"apogee_km":440.51930762668,"semimajor_km":6817.7038743954,"source":"CELESTRAK","updated_at":"2026-05-25T13:38:20.002006Z"}}}